User: anonymous   Login
Location: Drummondville
(45.8830°N, 72.4830°W)
Time: 05:52:08
(UTC-05:00)
Language:

TIGRISAT - Orbit

View from above orbital plane
View from above orbital plane
View from above satellite
View from above satellite

Ground track
Ground track

The orbit data is extracted from the following two-line orbital elements,

1 40043U 14033AK  18052.91357994 +.00000112 +00000-0 +24163-4 0  9999
2 40043 097.8260 294.3240 0059341 209.1794 150.6096 14.74097900197323
Epoch (UTC): 21 February 2018 21:55:33
Eccentricity: 0.0059341
inclination: 97.8260°
perigee height: 606 km
apogee height: 690 km
right ascension of ascending node: 294.3240°
argument of perigee: 209.1794°
revolutions per day: 14.74097900
mean anomaly at epoch: 150.6096°
orbit number at epoch: 19732

The dashed part of the orbit path shows where the satellite is in the earth's shadow,  

DLR